Location: Furnace Creek
(36.4500°N, 116.8500°W)
Time: 10:59:26
(UTC-08:00)

Envisat - Visible Passes

Search period start: 02 December 2020 00:00
Search period end: 12 December 2020 00:00
Orbit: 764 x 766 km, 98.1° (Epoch: 01 December)

Date Brightness Start Highest point End Pass type
(mag) Time Alt. Az. Time Alt. Az. Time Alt. Az.
02 Dec 4.5 05:07:01 10° NNE 05:11:47 39° E 05:16:29 10° SSE visible
02 Dec 5.7 17:59:07 10° SW 18:02:51 20° W 18:06:36 10° NW visible
03 Dec 5.9 04:31:30 10° NE 04:34:44 17° E 04:37:56 10° SE visible
03 Dec 3.2 06:09:05 10° N 06:13:58 48° WNW 06:18:49 10° SW visible
03 Dec 4.1 17:20:58 10° S 17:25:51 48° W 17:30:45 10° NNW visible
04 Dec 3.3 05:32:09 10° NNE 05:37:15 72° ESE 05:42:18 10° S visible
04 Dec 6.4 18:27:22 10° WSW 18:28:31 11° W 18:29:41 10° WNW visible
05 Dec 4.9 04:55:52 10° NE 05:00:20 30° E 05:04:46 10° SSE visible
05 Dec 5.3 17:47:10 10° SSW 17:51:22 26° W 17:55:37 10° NW visible
06 Dec 6.1 04:21:00 10° ENE 04:23:14 13° E 04:25:27 10° ESE visible
06 Dec 3.0 05:57:36 10° N 06:02:37 63° WNW 06:07:37 10° SSW visible
06 Dec 3.6 17:09:25 10° S 17:14:26 62° W 17:19:29 10° NNW visible
07 Dec 3.7 05:20:51 10° NNE 05:25:50 56° E 05:30:48 10° S visible
07 Dec 6.1 18:14:18 10° SW 18:17:00 14° W 18:19:43 10° WNW visible
08 Dec 5.4 04:44:49 10° NE 04:48:52 24° E 04:52:54 10° SSE visible
08 Dec 4.9 17:35:22 10° SSW 17:39:55 34° W 17:44:31 10° NNW visible
09 Dec 2.9 05:46:10 10° N 05:51:15 81° WNW 05:56:19 10° SSW visible
09 Dec 3.2 16:57:58 10° S 17:03:02 81° WSW 17:08:08 10° NNW visible
10 Dec 4.3 05:09:35 10° NNE 05:14:25 43° E 05:19:13 10° S visible
10 Dec 5.9 18:02:00 10° SW 18:05:31 19° W 18:09:02 10° NW visible
11 Dec 5.7 04:33:55 10° NE 04:37:24 18° E 04:40:51 10° SE visible
11 Dec 3.3 06:11:46 10° N 06:16:34 44° WNW 06:21:22 10° SW visible
11 Dec 4.3 17:23:41 10° S 17:28:29 43° W 17:33:19 10° NNW visible
